CW0736 Weather Reports


time (UTC)temp
C
wind
direction
speed
KPH
gust
KPH
rain 1hr
cm
rain 24hr
cm
rain mn
cm
humidity
%
barometer
mb
20260504050001 11 244 6.4 14.5 0.00 0.00 0.00 58 1009.8
20260504044535 11 248 6.4 16.1 0.00 0.00 0.00 58 1010.0
20260504043025 11 265 4.8 14.5 0.00 0.00 0.00 58 1009.9
20260504041513 11 259 3.2 11.3 0.00 0.00 0.00 58 1009.8
20260504040044 11 246 4.8 14.5 0.00 0.00 0.00 57 1009.9
20260504034610 11 240 4.8 14.5 0.00 0.00 0.00 57 1009.7
20260504033050 11 248 3.2 9.7 0.00 0.00 0.00 57 1009.8
20260504031552 11 230 4.8 11.3 0.00 0.00 0.00 57 1009.8
20260504030058 11 240 4.8 14.5 0.00 0.00 0.00 59 1009.9
20260504024504 11 257 3.2 14.5 0.00 0.00 0.00 59 1010.0
20260504023004 11 241 3.2 11.3 0.00 0.00 0.00 59 1010.0
20260504021554 11 237 4.8 16.1 0.00 0.00 0.00 59 1010.1
20260504020051 11 232 3.2 6.4 0.00 0.00 0.00 61 1010.2
20260504014544 11 241 3.2 8.0 0.00 0.00 0.00 62 1010.1
20260504013048 11 259 4.8 19.3 0.00 0.00 0.00 66 1010.2
20260504011542 10 281 3.2 6.4 0.00 0.00 0.00 71 1010.3
20260504010058 9 254 1.6 4.8 0.00 0.00 0.00 79 1010.3
20260504004556 9 267 0.0 1.6 0.00 0.00 0.00 82 1010.7
20260504003015 9 267 0.0 1.6 0.00 0.00 0.00 82 1010.8
20260504001510 9 267 0.0 1.6 0.00 0.00 0.00 82 1010.9
20260504000012 9 267 0.0 3.2 0.00 0.00 0.00 81 1011.1
20260503234600 10 267 0.0 3.2 0.00 0.00 0.00 80 1010.9
20260503234503 10 267 0.0 3.2 0.00 0.00 0.00 80 1011.0
20260503233102 10 267 0.0 3.2 0.00 0.00 0.00 78 1010.9
20260503231600 10 263 0.0 6.4 0.00 0.00 0.00 75 1010.9
20260503231503 10 263 0.0 9.7 0.00 0.00 0.00 74 1010.9
20260503230002 11 246 3.2 11.3 0.00 0.00 0.00 66 1011.0
20260503224524 11 279 4.8 14.5 0.00 0.00 0.00 61 1010.7
20260503223043 11 252 4.8 16.1 0.00 0.00 0.00 60 1010.5
20260503221546 11 276 8.0 16.1 0.00 0.00 0.00 58 1010.5
20260503220032 11 296 6.4 20.9 0.00 0.00 0.00 56 1010.5
20260503214525 12 279 4.8 14.5 0.00 0.00 0.00 54 1010.5
20260503213041 12 252 6.4 12.9 0.00 0.00 0.00 54 1010.1
20260503211538 12 275 4.8 14.5 0.00 0.00 0.00 53 1010.5
20260503210034 12 251 3.2 14.5 0.00 0.00 0.00 53 1010.7
20260503204532 12 247 4.8 19.3 0.00 0.00 0.00 53 1010.5
20260503203037 12 271 3.2 14.5 0.00 0.00 0.00 51 1010.5
20260503201516 13 290 4.8 14.5 0.00 0.00 0.00 50 1010.8
20260503200019 13 235 3.2 14.5 0.00 0.00 0.00 48 1010.8
20260503194539 13 236 4.8 16.1 0.00 0.00 0.00 46 1011.0
20260503193026 13 258 6.4 12.9 0.00 0.00 0.00 44 1011.4
20260503191513 13 268 4.8 16.1 0.00 0.00 0.00 45 1011.6
20260503190037 12 286 4.8 14.5 0.00 0.00 0.00 45 1011.9
20260503184523 12 278 4.8 14.5 0.00 0.00 0.00 46 1012.2
20260503183013 11 270 4.8 16.1 0.00 0.00 0.00 47 1012.5
20260503181531 12 254 6.4 17.7 0.00 0.00 0.00 44 1012.6
20260503180037 12 250 4.8 12.9 0.00 0.00 0.00 46 1012.8
20260503174517 12 244 3.2 14.5 0.00 0.00 0.00 46 1012.9
20260503173017 12 243 8.0 16.1 0.00 0.00 0.00 48 1013.1
20260503171521 11 272 3.2 11.3 0.00 0.00 0.00 54 1013.0
20260503150112 10 288 3.2 8.0 0.00 0.00 0.00 61 1014.5
20260503140113 9 250 3.2 6.4 0.00 0.00 0.00 63 1015.0
20260503081546 2 259 1.6 4.8 0.00 0.00 0.00 82 1015.4
20260503081059 2 256 1.6 4.8 0.00 0.00 0.00 82 1015.4
20260503081009 2 256 1.6 4.8 0.00 0.00 0.00 82 1015.4
20260503080548 2 259 0.0 3.2 0.00 0.00 0.00 82 1015.4
20260503072517 2 253 1.6 4.8 0.00 0.00 0.00 81 1015.3
20260503072034 2 250 1.6 4.8 0.00 0.00 0.00 81 1015.4
20260503071517 2 247 1.6 4.8 0.00 0.00 0.00 81 1015.3
20260503071035 2 243 1.6 4.8 0.00 0.00 0.00 81 1015.4
20260503070553 2 247 1.6 4.8 0.00 0.00 0.00 81 1015.4
20260503055009 3 266 1.6 4.8 0.00 0.00 0.00 77 1015.8
20260503054538 3 246 1.6 4.8 0.00 0.00 0.00 76 1015.7
20260503054049 3 245 0.0 3.2 0.00 0.00 0.00 76 1015.7
20260503053509 3 245 0.0 3.2 0.00 0.00 0.00 76 1015.8